owner,sensor,date,latitude,longitude,vertical_datum,mass_concentration_of_oxygen_in_sea_water,qcFlag 
DISL,ioos:station:DISL:KATA:1,2017-09-01T00:00:00Z,30.2583,-88.2131,4.069,7.51,1111122 
DISL,ioos:station:DISL:KATA:1,2017-09-01T00:30:00Z,30.2583,-88.2131,4.131,7.51,1111122 
DISL,ioos:station:DISL:KATA:1,2017-09-01T01:00:00Z,30.2583,-88.2131,4.136,7.24,1111122 
DISL,ioos:station:DISL:KATA:1,2017-09-01T01:30:00Z,30.2583,-88.2131,4.112,7.2,1111122 
DISL,ioos:station:DISL:KATA:1,2017-09-01T02:00:00Z,30.2583,-88.2131,4.116,7.22,1111122 
DISL,ioos:station:DISL:KATA:1,2017-09-01T02:30:00Z,30.2583,-88.2131,4.126,7.19,1111122 
DISL,ioos:station:DISL:KATA:1,2017-09-01T03:00:00Z,30.2583,-88.2131,4.141,7.05,1111122 
DISL,ioos:station:DISL:KATA:1,2017-09-01T03:30:00Z,30.2583,-88.2131,4.185,7.27,1111122 
DISL,ioos:station:DISL:KATA:1,2017-09-01T04:00:00Z,30.2583,-88.2131,4.193,7.04,1111122 
DISL,ioos:station:DISL:KATA:1,2017-09-01T04:30:00Z,30.2583,-88.2131,4.206,6.81,1111122 
DISL,ioos:station:DISL:KATA:1,2017-09-01T05:00:00Z,30.2583,-88.2131,4.205,6.71,1111122 
DISL,ioos:station:DISL:KATA:1,2017-09-01T05:30:00Z,30.2583,-88.2131,4.229,6.96,1111122 
DISL,ioos:station:DISL:KATA:1,2017-09-01T06:00:00Z,30.2583,-88.2131,4.19,6.83,1111122 
DISL,ioos:station:DISL:KATA:1,2017-09-01T06:30:00Z,30.2583,-88.2131,4.236,6.75,1111122 
DISL,ioos:station:DISL:KATA:1,2017-09-01T07:00:00Z,30.2583,-88.2131,4.239,6.67,1111122 
DISL,ioos:station:DISL:KATA:1,2017-09-01T07:30:00Z,30.2583,-88.2131,4.246,6.61,1111122 
DISL,ioos:station:DISL:KATA:1,2017-09-01T08:00:00Z,30.2583,-88.2131,4.254,6.49,1111122 
DISL,ioos:station:DISL:KATA:1,2017-09-01T08:30:00Z,30.2583,-88.2131,4.27,6.61,1111122 
DISL,ioos:station:DISL:KATA:1,2017-09-01T09:00:00Z,30.2583,-88.2131,4.305,6.6,1111122 
DISL,ioos:station:DISL:KATA:1,2017-09-01T09:30:00Z,30.2583,-88.2131,4.331,6.42,1111122 
DISL,ioos:station:DISL:KATA:1,2017-09-01T10:00:00Z,30.2583,-88.2131,4.351,6.52,1111122 
DISL,ioos:station:DISL:KATA:1,2017-09-01T10:30:00Z,30.2583,-88.2131,4.364,6.5,1111122 
DISL,ioos:station:DISL:KATA:1,2017-09-01T11:00:00Z,30.2583,-88.2131,4.368,6.49,1111122 
DISL,ioos:station:DISL:KATA:1,2017-09-01T11:30:00Z,30.2583,-88.2131,4.359,6.41,1111122 
DISL,ioos:station:DISL:KATA:1,2017-09-01T12:00:00Z,30.2583,-88.2131,4.341,6.5,1111122 
DISL,ioos:station:DISL:KATA:1,2017-09-01T12:30:00Z,30.2583,-88.2131,4.345,6.53,1111122 
DISL,ioos:station:DISL:KATA:1,2017-09-01T13:00:00Z,30.2583,-88.2131,4.345,6.51,1111122 
DISL,ioos:station:DISL:KATA:1,2017-09-01T13:30:00Z,30.2583,-88.2131,4.339,6.51,1111122 
DISL,ioos:station:DISL:KATA:1,2017-09-01T14:00:00Z,30.2583,-88.2131,4.328,6.49,1111122 
DISL,ioos:station:DISL:KATA:1,2017-09-01T14:30:00Z,30.2583,-88.2131,4.322,6.46,1111122 
DISL,ioos:station:DISL:KATA:1,2017-09-01T15:00:00Z,30.2583,-88.2131,4.303,6.46,1111122 
DISL,ioos:station:DISL:KATA:1,2017-09-01T15:30:00Z,30.2583,-88.2131,4.283,6.43,1111122 
DISL,ioos:station:DISL:KATA:1,2017-09-01T16:00:00Z,30.2583,-88.2131,4.263,6.55,1111122 
DISL,ioos:station:DISL:KATA:1,2017-09-01T16:30:00Z,30.2583,-88.2131,4.227,6.61,1111122 
DISL,ioos:station:DISL:KATA:1,2017-09-01T17:00:00Z,30.2583,-88.2131,4.194,6.46,1111122 
DISL,ioos:station:DISL:KATA:1,2017-09-01T17:30:00Z,30.2583,-88.2131,4.173,6.44,1111122 
DISL,ioos:station:DISL:KATA:1,2017-09-01T18:00:00Z,30.2583,-88.2131,4.144,6.48,1111122 
DISL,ioos:station:DISL:KATA:1,2017-09-01T18:30:00Z,30.2583,-88.2131,4.113,6.66,1111122 
DISL,ioos:station:DISL:KATA:1,2017-09-01T19:00:00Z,30.2583,-88.2131,4.082,7.05,1111122 
DISL,ioos:station:DISL:KATA:1,2017-09-01T19:30:00Z,30.2583,-88.2131,4.054,7.39,1111122 
DISL,ioos:station:DISL:KATA:1,2017-09-01T20:00:00Z,30.2583,-88.2131,4.028,8.09,1111122 
DISL,ioos:station:DISL:KATA:1,2017-09-01T20:30:00Z,30.2583,-88.2131,4.01,8.03,1111122 
DISL,ioos:station:DISL:KATA:1,2017-09-01T21:00:00Z,30.2583,-88.2131,3.99,7.82,1111122 
DISL,ioos:station:DISL:KATA:1,2017-09-01T21:30:00Z,30.2583,-88.2131,3.98,7.84,1111122 
DISL,ioos:station:DISL:KATA:1,2017-09-01T22:00:00Z,30.2583,-88.2131,3.977,8.01,1111122 
DISL,ioos:station:DISL:KATA:1,2017-09-01T22:30:00Z,30.2583,-88.2131,3.976,8.23,1111122 
DISL,ioos:station:DISL:KATA:1,2017-09-01T23:00:00Z,30.2583,-88.2131,3.965,8.26,1111122 
DISL,ioos:station:DISL:KATA:1,2017-09-01T23:30:00Z,30.2583,-88.2131,3.954,8.4,1111122 
DISL,ioos:station:DISL:KATA:1,2017-09-02T00:00:00Z,30.2583,-88.2131,3.949,7.68,1111122 
DISL,ioos:station:DISL:KATA:1,2017-09-02T00:30:00Z,30.2583,-88.2131,3.941,7.61,1111122 
DISL,ioos:station:DISL:KATA:1,2017-09-02T01:00:00Z,30.2583,-88.2131,3.958,7.55,1111122 
DISL,ioos:station:DISL:KATA:1,2017-09-02T01:30:00Z,30.2583,-88.2131,3.996,7.57,1111122 
DISL,ioos:station:DISL:KATA:1,2017-09-02T02:00:00Z,30.2583,-88.2131,4.024,7.65,1111122 
DISL,ioos:station:DISL:KATA:1,2017-09-02T02:30:00Z,30.2583,-88.2131,4.063,7.62,1111122 
DISL,ioos:station:DISL:KATA:1,2017-09-02T03:00:00Z,30.2583,-88.2131,4.096,7.1,1111122 
DISL,ioos:station:DISL:KATA:1,2017-09-02T03:30:00Z,30.2583,-88.2131,4.125,6.82,1111122 
DISL,ioos:station:DISL:KATA:1,2017-09-02T04:00:00Z,30.2583,-88.2131,4.145,6.5,1111122 
DISL,ioos:station:DISL:KATA:1,2017-09-02T04:30:00Z,30.2583,-88.2131,4.175,6.25,1111122 
DISL,ioos:station:DISL:KATA:1,2017-09-02T05:00:00Z,30.2583,-88.2131,4.118,6.64,1111122 
DISL,ioos:station:DISL:KATA:1,2017-09-02T05:30:00Z,30.2583,-88.2131,4.145,6.32,1111122 
DISL,ioos:station:DISL:KATA:1,2017-09-02T06:00:00Z,30.2583,-88.2131,4.125,6.18,1111122 
DISL,ioos:station:DISL:KATA:1,2017-09-02T06:30:00Z,30.2583,-88.2131,4.113,6.42,1111122 
DISL,ioos:station:DISL:KATA:1,2017-09-02T07:00:00Z,30.2583,-88.2131,4.149,6.04,1111122 
DISL,ioos:station:DISL:KATA:1,2017-09-02T07:30:00Z,30.2583,-88.2131,4.168,6.89,1111122 
DISL,ioos:station:DISL:KATA:1,2017-09-02T08:00:00Z,30.2583,-88.2131,4.197,5.85,1111122 
DISL,ioos:station:DISL:KATA:1,2017-09-02T08:30:00Z,30.2583,-88.2131,4.24,5.45,1111122 
DISL,ioos:station:DISL:KATA:1,2017-09-02T09:00:00Z,30.2583,-88.2131,4.24,5.41,1111122 
DISL,ioos:station:DISL:KATA:1,2017-09-02T09:30:00Z,30.2583,-88.2131,4.237,6.01,1111122 
DISL,ioos:station:DISL:KATA:1,2017-09-02T10:00:00Z,30.2583,-88.2131,4.232,5.92,1111122 
DISL,ioos:station:DISL:KATA:1,2017-09-02T10:30:00Z,30.2583,-88.2131,4.228,6.19,1111122 
DISL,ioos:station:DISL:KATA:1,2017-09-02T11:00:00Z,30.2583,-88.2131,4.227,5.11,1111122 
DISL,ioos:station:DISL:KATA:1,2017-09-02T11:30:00Z,30.2583,-88.2131,4.25,5.14,1111122 
DISL,ioos:station:DISL:KATA:1,2017-09-02T12:00:00Z,30.2583,-88.2131,4.256,4.94,1111122 
DISL,ioos:station:DISL:KATA:1,2017-09-02T12:30:00Z,30.2583,-88.2131,4.271,4.47,1111122 
DISL,ioos:station:DISL:KATA:1,2017-09-02T13:00:00Z,30.2583,-88.2131,4.287,4.35,1111122 
DISL,ioos:station:DISL:KATA:1,2017-09-02T13:30:00Z,30.2583,-88.2131,4.299,4.38,1111122 
DISL,ioos:station:DISL:KATA:1,2017-09-02T14:00:00Z,30.2583,-88.2131,4.295,4.07,1111122 
DISL,ioos:station:DISL:KATA:1,2017-09-02T14:30:00Z,30.2583,-88.2131,4.294,3.82,1111122 
DISL,ioos:station:DISL:KATA:1,2017-09-02T15:00:00Z,30.2583,-88.2131,4.29,3.85,1111122 
DISL,ioos:station:DISL:KATA:1,2017-09-02T15:30:00Z,30.2583,-88.2131,4.264,3.76,1111122 
DISL,ioos:station:DISL:KATA:1,2017-09-02T16:00:00Z,30.2583,-88.2131,4.231,4.11,1111122 
DISL,ioos:station:DISL:KATA:1,2017-09-02T16:30:00Z,30.2583,-88.2131,4.199,4.56,1111122 
DISL,ioos:station:DISL:KATA:1,2017-09-02T17:00:00Z,30.2583,-88.2131,4.154,3.99,1111122 
DISL,ioos:station:DISL:KATA:1,2017-09-02T17:30:00Z,30.2583,-88.2131,4.123,5.32,1111122 
DISL,ioos:station:DISL:KATA:1,2017-09-02T18:00:00Z,30.2583,-88.2131,4.098,5.53,1111122 
DISL,ioos:station:DISL:KATA:1,2017-09-02T18:30:00Z,30.2583,-88.2131,4.07,5.4,1111122 
DISL,ioos:station:DISL:KATA:1,2017-09-02T19:00:00Z,30.2583,-88.2131,4.044,5.58,1111122 
DISL,ioos:station:DISL:KATA:1,2017-09-02T19:30:00Z,30.2583,-88.2131,4.02,8.17,1111122 
DISL,ioos:station:DISL:KATA:1,2017-09-02T20:00:00Z,30.2583,-88.2131,3.994,7.97,1111122 
DISL,ioos:station:DISL:KATA:1,2017-09-02T20:30:00Z,30.2583,-88.2131,3.966,7.53,1111122 
DISL,ioos:station:DISL:KATA:1,2017-09-02T21:00:00Z,30.2583,-88.2131,3.938,7.59,1111122 
DISL,ioos:station:DISL:KATA:1,2017-09-02T21:30:00Z,30.2583,-88.2131,3.919,7.62,1111122 
DISL,ioos:station:DISL:KATA:1,2017-09-02T22:00:00Z,30.2583,-88.2131,3.904,7.24,1111122 
DISL,ioos:station:DISL:KATA:1,2017-09-02T22:30:00Z,30.2583,-88.2131,3.908,7.53,1111122 
DISL,ioos:station:DISL:KATA:1,2017-09-02T23:00:00Z,30.2583,-88.2131,3.896,7.53,1111122 
DISL,ioos:station:DISL:KATA:1,2017-09-02T23:30:00Z,30.2583,-88.2131,3.888,7.7,1111122 
DISL,ioos:station:DISL:KATA:1,2017-09-03T00:00:00Z,30.2583,-88.2131,3.877,7.81,1111122 
DISL,ioos:station:DISL:KATA:1,2017-09-03T00:30:00Z,30.2583,-88.2131,3.894,7.72,1111122 
DISL,ioos:station:DISL:KATA:1,2017-09-03T01:00:00Z,30.2583,-88.2131,3.924,7.57,1111122 
DISL,ioos:station:DISL:KATA:1,2017-09-03T01:30:00Z,30.2583,-88.2131,3.952,7.58,1111122 
DISL,ioos:station:DISL:KATA:1,2017-09-03T02:00:00Z,30.2583,-88.2131,3.98,6.52,1111122 
DISL,ioos:station:DISL:KATA:1,2017-09-03T02:30:00Z,30.2583,-88.2131,4.018,7.0,1111122 
DISL,ioos:station:DISL:KATA:1,2017-09-03T03:00:00Z,30.2583,-88.2131,4.021,5.01,1111122 
DISL,ioos:station:DISL:KATA:1,2017-09-03T03:30:00Z,30.2583,-88.2131,4.025,3.88,1111122 
DISL,ioos:station:DISL:KATA:1,2017-09-03T04:00:00Z,30.2583,-88.2131,4.049,3.75,1111122 
DISL,ioos:station:DISL:KATA:1,2017-09-03T04:30:00Z,30.2583,-88.2131,4.066,3.87,1111122 
DISL,ioos:station:DISL:KATA:1,2017-09-03T05:00:00Z,30.2583,-88.2131,4.074,4.05,1111122 
DISL,ioos:station:DISL:KATA:1,2017-09-03T05:30:00Z,30.2583,-88.2131,4.103,4.13,1111122 
DISL,ioos:station:DISL:KATA:1,2017-09-03T06:00:00Z,30.2583,-88.2131,4.129,3.98,1111122 
DISL,ioos:station:DISL:KATA:1,2017-09-03T06:30:00Z,30.2583,-88.2131,4.139,4.31,1111122 
DISL,ioos:station:DISL:KATA:1,2017-09-03T07:00:00Z,30.2583,-88.2131,4.152,4.06,1111122 
DISL,ioos:station:DISL:KATA:1,2017-09-03T07:30:00Z,30.2583,-88.2131,4.155,4.34,1111122 
DISL,ioos:station:DISL:KATA:1,2017-09-03T08:00:00Z,30.2583,-88.2131,4.154,4.2,1111122 
DISL,ioos:station:DISL:KATA:1,2017-09-03T08:30:00Z,30.2583,-88.2131,4.156,3.58,1111122 
DISL,ioos:station:DISL:KATA:1,2017-09-03T09:00:00Z,30.2583,-88.2131,4.163,3.51,1111122 
DISL,ioos:station:DISL:KATA:1,2017-09-03T09:30:00Z,30.2583,-88.2131,4.202,3.71,1111122 
DISL,ioos:station:DISL:KATA:1,2017-09-03T10:00:00Z,30.2583,-88.2131,4.246,3.43,1111122 
DISL,ioos:station:DISL:KATA:1,2017-09-03T10:30:00Z,30.2583,-88.2131,4.287,3.65,1111122 
DISL,ioos:station:DISL:KATA:1,2017-09-03T11:00:00Z,30.2583,-88.2131,4.324,3.7,1111122 
DISL,ioos:station:DISL:KATA:1,2017-09-03T11:30:00Z,30.2583,-88.2131,4.355,3.71,1111122 
DISL,ioos:station:DISL:KATA:1,2017-09-03T12:00:00Z,30.2583,-88.2131,4.367,3.77,1111122 
DISL,ioos:station:DISL:KATA:1,2017-09-03T12:30:00Z,30.2583,-88.2131,4.354,3.62,1111122 
DISL,ioos:station:DISL:KATA:1,2017-09-03T13:00:00Z,30.2583,-88.2131,4.353,3.45,1111122 
DISL,ioos:station:DISL:KATA:1,2017-09-03T13:30:00Z,30.2583,-88.2131,4.333,3.45,1111122 
DISL,ioos:station:DISL:KATA:1,2017-09-03T14:00:00Z,30.2583,-88.2131,4.321,3.22,1111122 
DISL,ioos:station:DISL:KATA:1,2017-09-03T14:30:00Z,30.2583,-88.2131,4.318,2.9,1111122 
DISL,ioos:station:DISL:KATA:1,2017-09-03T15:00:00Z,30.2583,-88.2131,4.304,2.36,1111122 
DISL,ioos:station:DISL:KATA:1,2017-09-03T15:30:00Z,30.2583,-88.2131,4.299,3.24,1111122 
DISL,ioos:station:DISL:KATA:1,2017-09-03T16:00:00Z,30.2583,-88.2131,4.284,3.24,1111122 
DISL,ioos:station:DISL:KATA:1,2017-09-03T16:30:00Z,30.2583,-88.2131,4.258,3.41,1111122 
DISL,ioos:station:DISL:KATA:1,2017-09-03T17:00:00Z,30.2583,-88.2131,4.235,3.38,1111122 
DISL,ioos:station:DISL:KATA:1,2017-09-03T17:30:00Z,30.2583,-88.2131,4.199,3.65,1111122 
DISL,ioos:station:DISL:KATA:1,2017-09-03T18:00:00Z,30.2583,-88.2131,4.161,3.9,1111122 
DISL,ioos:station:DISL:KATA:1,2017-09-03T18:30:00Z,30.2583,-88.2131,4.123,4.24,1111122 
DISL,ioos:station:DISL:KATA:1,2017-09-03T19:00:00Z,30.2583,-88.2131,4.076,4.54,1111122 
DISL,ioos:station:DISL:KATA:1,2017-09-03T19:30:00Z,30.2583,-88.2131,4.032,4.68,1111122 
DISL,ioos:station:DISL:KATA:1,2017-09-03T20:00:00Z,30.2583,-88.2131,3.999,5.62,1111122 
DISL,ioos:station:DISL:KATA:1,2017-09-03T20:30:00Z,30.2583,-88.2131,3.963,4.4,1111122 
DISL,ioos:station:DISL:KATA:1,2017-09-03T21:00:00Z,30.2583,-88.2131,3.933,4.07,1111122 
DISL,ioos:station:DISL:KATA:1,2017-09-03T21:30:00Z,30.2583,-88.2131,3.912,3.63,1111122 
DISL,ioos:station:DISL:KATA:1,2017-09-03T22:00:00Z,30.2583,-88.2131,3.899,3.64,1111122 
DISL,ioos:station:DISL:KATA:1,2017-09-03T22:30:00Z,30.2583,-88.2131,3.894,3.36,1111122 
DISL,ioos:station:DISL:KATA:1,2017-09-03T23:00:00Z,30.2583,-88.2131,3.899,3.55,1111122 
DISL,ioos:station:DISL:KATA:1,2017-09-03T23:30:00Z,30.2583,-88.2131,3.91,3.3,1111122 
DISL,ioos:station:DISL:KATA:1,2017-09-04T00:00:00Z,30.2583,-88.2131,3.93,3.29,1111122 
DISL,ioos:station:DISL:KATA:1,2017-09-04T00:30:00Z,30.2583,-88.2131,3.949,3.39,1111122 
DISL,ioos:station:DISL:KATA:1,2017-09-04T01:00:00Z,30.2583,-88.2131,3.965,3.59,1111122 
DISL,ioos:station:DISL:KATA:1,2017-09-04T01:30:00Z,30.2583,-88.2131,3.978,3.47,1111122 
DISL,ioos:station:DISL:KATA:1,2017-09-04T02:00:00Z,30.2583,-88.2131,3.976,3.51,1111122 
DISL,ioos:station:DISL:KATA:1,2017-09-04T02:30:00Z,30.2583,-88.2131,3.977,3.17,1111122 
DISL,ioos:station:DISL:KATA:1,2017-09-04T03:00:00Z,30.2583,-88.2131,3.987,3.08,1111122 
DISL,ioos:station:DISL:KATA:1,2017-09-04T03:30:00Z,30.2583,-88.2131,4.011,2.99,1111122 
DISL,ioos:station:DISL:KATA:1,2017-09-04T04:00:00Z,30.2583,-88.2131,4.033,2.78,1111122 
DISL,ioos:station:DISL:KATA:1,2017-09-04T04:30:00Z,30.2583,-88.2131,4.054,3.13,1111122 
DISL,ioos:station:DISL:KATA:1,2017-09-04T05:00:00Z,30.2583,-88.2131,4.076,2.93,1111122 
DISL,ioos:station:DISL:KATA:1,2017-09-04T05:30:00Z,30.2583,-88.2131,4.092,3.04,1111122 
DISL,ioos:station:DISL:KATA:1,2017-09-04T06:00:00Z,30.2583,-88.2131,4.099,3.0,1111122 
DISL,ioos:station:DISL:KATA:1,2017-09-04T06:30:00Z,30.2583,-88.2131,4.099,2.77,1111122 
DISL,ioos:station:DISL:KATA:1,2017-09-04T07:00:00Z,30.2583,-88.2131,4.108,2.69,1111122 
DISL,ioos:station:DISL:KATA:1,2017-09-04T07:30:00Z,30.2583,-88.2131,4.112,2.74,1111122 
DISL,ioos:station:DISL:KATA:1,2017-09-04T08:00:00Z,30.2583,-88.2131,4.13,2.61,1111122 
DISL,ioos:station:DISL:KATA:1,2017-09-04T08:30:00Z,30.2583,-88.2131,4.151,2.55,1111122 
DISL,ioos:station:DISL:KATA:1,2017-09-04T09:00:00Z,30.2583,-88.2131,4.176,2.7,1111122 
DISL,ioos:station:DISL:KATA:1,2017-09-04T09:30:00Z,30.2583,-88.2131,4.205,2.59,1111122 
DISL,ioos:station:DISL:KATA:1,2017-09-04T10:00:00Z,30.2583,-88.2131,4.23,2.58,1111122 
DISL,ioos:station:DISL:KATA:1,2017-09-04T10:30:00Z,30.2583,-88.2131,4.258,2.55,1111122 
DISL,ioos:station:DISL:KATA:1,2017-09-04T11:00:00Z,30.2583,-88.2131,4.283,2.56,1111122 
DISL,ioos:station:DISL:KATA:1,2017-09-04T11:30:00Z,30.2583,-88.2131,4.305,2.57,1111122 
DISL,ioos:station:DISL:KATA:1,2017-09-04T12:00:00Z,30.2583,-88.2131,4.321,2.64,1111122 
DISL,ioos:station:DISL:KATA:1,2017-09-04T12:30:00Z,30.2583,-88.2131,4.341,2.69,1111122 
DISL,ioos:station:DISL:KATA:1,2017-09-04T13:00:00Z,30.2583,-88.2131,4.363,2.78,1111122 
DISL,ioos:station:DISL:KATA:1,2017-09-04T13:30:00Z,30.2583,-88.2131,4.374,2.75,1111122 
DISL,ioos:station:DISL:KATA:1,2017-09-04T14:00:00Z,30.2583,-88.2131,4.386,2.77,1111122 
DISL,ioos:station:DISL:KATA:1,2017-09-04T14:30:00Z,30.2583,-88.2131,4.378,2.83,1111122 
DISL,ioos:station:DISL:KATA:1,2017-09-04T15:00:00Z,30.2583,-88.2131,4.373,2.62,1111122 
DISL,ioos:station:DISL:KATA:1,2017-09-04T15:30:00Z,30.2583,-88.2131,4.358,2.8,1111122 
DISL,ioos:station:DISL:KATA:1,2017-09-04T16:00:00Z,30.2583,-88.2131,4.345,2.72,1111122 
DISL,ioos:station:DISL:KATA:1,2017-09-04T16:30:00Z,30.2583,-88.2131,4.332,2.41,1111122 
DISL,ioos:station:DISL:KATA:1,2017-09-04T17:00:00Z,30.2583,-88.2131,4.316,2.57,1111122 
DISL,ioos:station:DISL:KATA:1,2017-09-04T17:30:00Z,30.2583,-88.2131,4.297,2.36,1111122 
DISL,ioos:station:DISL:KATA:1,2017-09-04T18:00:00Z,30.2583,-88.2131,4.268,2.83,1111122 
DISL,ioos:station:DISL:KATA:1,2017-09-04T18:30:00Z,30.2583,-88.2131,4.243,3.09,1111122 
DISL,ioos:station:DISL:KATA:1,2017-09-04T19:00:00Z,30.2583,-88.2131,4.199,3.19,1111122 
DISL,ioos:station:DISL:KATA:1,2017-09-04T19:30:00Z,30.2583,-88.2131,4.151,3.06,1111122 
DISL,ioos:station:DISL:KATA:1,2017-09-04T20:00:00Z,30.2583,-88.2131,4.101,3.13,1111122 
DISL,ioos:station:DISL:KATA:1,2017-09-04T20:30:00Z,30.2583,-88.2131,4.056,3.17,1111122 
DISL,ioos:station:DISL:KATA:1,2017-09-04T21:00:00Z,30.2583,-88.2131,4.015,3.22,1111122 
DISL,ioos:station:DISL:KATA:1,2017-09-04T21:30:00Z,30.2583,-88.2131,3.987,3.8,1111122 
DISL,ioos:station:DISL:KATA:1,2017-09-04T22:00:00Z,30.2583,-88.2131,3.96,3.66,1111122 
DISL,ioos:station:DISL:KATA:1,2017-09-04T22:30:00Z,30.2583,-88.2131,3.951,3.75,1111122 
DISL,ioos:station:DISL:KATA:1,2017-09-04T23:00:00Z,30.2583,-88.2131,3.94,3.88,1111122 
DISL,ioos:station:DISL:KATA:1,2017-09-04T23:30:00Z,30.2583,-88.2131,3.943,3.2,1111122 
DISL,ioos:station:DISL:KATA:1,2017-09-05T00:00:00Z,30.2583,-88.2131,3.95,2.78,1111122 
DISL,ioos:station:DISL:KATA:1,2017-09-05T00:30:00Z,30.2583,-88.2131,3.971,2.56,1111122 
DISL,ioos:station:DISL:KATA:1,2017-09-05T01:00:00Z,30.2583,-88.2131,3.982,2.85,1111122 
DISL,ioos:station:DISL:KATA:1,2017-09-05T01:30:00Z,30.2583,-88.2131,3.994,2.83,1111122 
DISL,ioos:station:DISL:KATA:1,2017-09-05T02:00:00Z,30.2583,-88.2131,3.998,2.72,1111122 
DISL,ioos:station:DISL:KATA:1,2017-09-05T02:30:00Z,30.2583,-88.2131,4.01,2.68,1111122 
DISL,ioos:station:DISL:KATA:1,2017-09-05T03:00:00Z,30.2583,-88.2131,4.015,2.59,1111122 
DISL,ioos:station:DISL:KATA:1,2017-09-05T03:30:00Z,30.2583,-88.2131,4.03,2.73,1111122 
DISL,ioos:station:DISL:KATA:1,2017-09-05T04:00:00Z,30.2583,-88.2131,4.044,2.66,1111122 
DISL,ioos:station:DISL:KATA:1,2017-09-05T04:30:00Z,30.2583,-88.2131,4.059,2.48,1111122 
DISL,ioos:station:DISL:KATA:1,2017-09-05T05:00:00Z,30.2583,-88.2131,4.079,2.41,1111122 
DISL,ioos:station:DISL:KATA:1,2017-09-05T05:30:00Z,30.2583,-88.2131,4.099,2.5,1111122 
DISL,ioos:station:DISL:KATA:1,2017-09-05T06:00:00Z,30.2583,-88.2131,4.112,2.45,1111122 
DISL,ioos:station:DISL:KATA:1,2017-09-05T06:30:00Z,30.2583,-88.2131,4.125,2.48,1111122 
DISL,ioos:station:DISL:KATA:1,2017-09-05T07:00:00Z,30.2583,-88.2131,4.139,2.61,1111122 
DISL,ioos:station:DISL:KATA:1,2017-09-05T07:30:00Z,30.2583,-88.2131,4.154,2.49,1111122 
DISL,ioos:station:DISL:KATA:1,2017-09-05T08:00:00Z,30.2583,-88.2131,4.16,2.35,1111122 
DISL,ioos:station:DISL:KATA:1,2017-09-05T08:30:00Z,30.2583,-88.2131,4.168,2.41,1111122 
DISL,ioos:station:DISL:KATA:1,2017-09-05T09:00:00Z,30.2583,-88.2131,4.167,2.46,1111122 
DISL,ioos:station:DISL:KATA:1,2017-09-05T09:30:00Z,30.2583,-88.2131,4.181,2.2,1111122 
DISL,ioos:station:DISL:KATA:1,2017-09-05T10:00:00Z,30.2583,-88.2131,4.188,2.67,1111122 
DISL,ioos:station:DISL:KATA:1,2017-09-05T10:30:00Z,30.2583,-88.2131,4.206,2.7,1111122 
DISL,ioos:station:DISL:KATA:1,2017-09-05T11:00:00Z,30.2583,-88.2131,4.237,3.07,1111122 
DISL,ioos:station:DISL:KATA:1,2017-09-05T11:30:00Z,30.2583,-88.2131,4.253,2.76,1111122 
DISL,ioos:station:DISL:KATA:1,2017-09-05T12:00:00Z,30.2583,-88.2131,4.289,3.03,1111122 
DISL,ioos:station:DISL:KATA:1,2017-09-05T12:30:00Z,30.2583,-88.2131,4.313,3.05,1111122 
DISL,ioos:station:DISL:KATA:1,2017-09-05T13:00:00Z,30.2583,-88.2131,4.339,3.16,1111122 
DISL,ioos:station:DISL:KATA:1,2017-09-05T13:30:00Z,30.2583,-88.2131,4.348,3.03,1111122 
DISL,ioos:station:DISL:KATA:1,2017-09-05T14:00:00Z,30.2583,-88.2131,4.354,3.16,1111122 
DISL,ioos:station:DISL:KATA:1,2017-09-05T14:30:00Z,30.2583,-88.2131,4.361,3.2,1111122 
DISL,ioos:station:DISL:KATA:1,2017-09-05T15:00:00Z,30.2583,-88.2131,4.368,3.08,1111122 
DISL,ioos:station:DISL:KATA:1,2017-09-05T15:30:00Z,30.2583,-88.2131,4.367,3.13,1111122 
DISL,ioos:station:DISL:KATA:1,2017-09-05T16:00:00Z,30.2583,-88.2131,4.367,2.97,1111122 
DISL,ioos:station:DISL:KATA:1,2017-09-05T16:30:00Z,30.2583,-88.2131,4.364,2.99,1111122 
DISL,ioos:station:DISL:KATA:1,2017-09-05T17:00:00Z,30.2583,-88.2131,4.36,3.21,1111122 
DISL,ioos:station:DISL:KATA:1,2017-09-05T17:30:00Z,30.2583,-88.2131,4.359,2.81,1111122 
DISL,ioos:station:DISL:KATA:1,2017-09-05T18:00:00Z,30.2583,-88.2131,4.342,2.44,1111122 
DISL,ioos:station:DISL:KATA:1,2017-09-05T18:30:00Z,30.2583,-88.2131,4.323,3.21,1111122 
DISL,ioos:station:DISL:KATA:1,2017-09-05T19:00:00Z,30.2583,-88.2131,4.288,3.14,1111122 
DISL,ioos:station:DISL:KATA:1,2017-09-05T19:30:00Z,30.2583,-88.2131,4.252,3.3,1111122 
DISL,ioos:station:DISL:KATA:1,2017-09-05T20:00:00Z,30.2583,-88.2131,4.206,3.58,1111122 
DISL,ioos:station:DISL:KATA:1,2017-09-05T20:30:00Z,30.2583,-88.2131,4.166,3.58,1111122 
DISL,ioos:station:DISL:KATA:1,2017-09-05T21:00:00Z,30.2583,-88.2131,4.13,3.77,1111122 
DISL,ioos:station:DISL:KATA:1,2017-09-05T21:30:00Z,30.2583,-88.2131,4.094,4.02,1111122 
DISL,ioos:station:DISL:KATA:1,2017-09-05T22:00:00Z,30.2583,-88.2131,4.075,4.17,1111122 
DISL,ioos:station:DISL:KATA:1,2017-09-05T22:30:00Z,30.2583,-88.2131,4.05,3.97,1111122 
DISL,ioos:station:DISL:KATA:1,2017-09-05T23:00:00Z,30.2583,-88.2131,4.045,3.74,1111122 
DISL,ioos:station:DISL:KATA:1,2017-09-05T23:30:00Z,30.2583,-88.2131,4.053,3.17,1111122 
DISL,ioos:station:DISL:KATA:1,2017-09-06T00:00:00Z,30.2583,-88.2131,4.058,3.2,1111122 
DISL,ioos:station:DISL:KATA:1,2017-09-06T00:30:00Z,30.2583,-88.2131,4.082,2.7,1111122 
DISL,ioos:station:DISL:KATA:1,2017-09-06T01:00:00Z,30.2583,-88.2131,4.106,3.05,1111122 
DISL,ioos:station:DISL:KATA:1,2017-09-06T01:30:00Z,30.2583,-88.2131,4.121,3.22,1111122 
DISL,ioos:station:DISL:KATA:1,2017-09-06T02:00:00Z,30.2583,-88.2131,4.134,3.32,1111122 
DISL,ioos:station:DISL:KATA:1,2017-09-06T02:30:00Z,30.2583,-88.2131,4.14,3.06,1111122 
DISL,ioos:station:DISL:KATA:1,2017-09-06T03:00:00Z,30.2583,-88.2131,4.131,3.29,1111122 
DISL,ioos:station:DISL:KATA:1,2017-09-06T03:30:00Z,30.2583,-88.2131,4.118,3.04,1111122 
DISL,ioos:station:DISL:KATA:1,2017-09-06T04:00:00Z,30.2583,-88.2131,4.114,3.12,1111122 
DISL,ioos:station:DISL:KATA:1,2017-09-06T04:30:00Z,30.2583,-88.2131,4.11,2.82,1111122 
DISL,ioos:station:DISL:KATA:1,2017-09-06T05:00:00Z,30.2583,-88.2131,4.099,2.86,1111122 
DISL,ioos:station:DISL:KATA:1,2017-09-06T05:30:00Z,30.2583,-88.2131,4.102,2.24,1111122 
DISL,ioos:station:DISL:KATA:1,2017-09-06T06:00:00Z,30.2583,-88.2131,4.101,2.65,1111122 
DISL,ioos:station:DISL:KATA:1,2017-09-06T06:30:00Z,30.2583,-88.2131,4.113,2.67,1111122 
DISL,ioos:station:DISL:KATA:1,2017-09-06T07:00:00Z,30.2583,-88.2131,4.177,2.9,1111122 
DISL,ioos:station:DISL:KATA:1,2017-09-06T07:30:00Z,30.2583,-88.2131,4.254,2.86,1111122 
DISL,ioos:station:DISL:KATA:1,2017-09-06T08:00:00Z,30.2583,-88.2131,4.169,3.03,1111122 
DISL,ioos:station:DISL:KATA:1,2017-09-06T08:30:00Z,30.2583,-88.2131,4.093,2.35,1111122 
DISL,ioos:station:DISL:KATA:1,2017-09-06T09:00:00Z,30.2583,-88.2131,4.129,2.82,1111122 
DISL,ioos:station:DISL:KATA:1,2017-09-06T09:30:00Z,30.2583,-88.2131,4.164,2.78,1111122 
DISL,ioos:station:DISL:KATA:1,2017-09-06T10:00:00Z,30.2583,-88.2131,4.175,2.99,1111122 
DISL,ioos:station:DISL:KATA:1,2017-09-06T10:30:00Z,30.2583,-88.2131,4.164,2.89,1111122 
DISL,ioos:station:DISL:KATA:1,2017-09-06T11:00:00Z,30.2583,-88.2131,4.175,2.61,1111122 
DISL,ioos:station:DISL:KATA:1,2017-09-06T11:30:00Z,30.2583,-88.2131,4.197,2.81,1111122 
DISL,ioos:station:DISL:KATA:1,2017-09-06T12:00:00Z,30.2583,-88.2131,4.228,2.73,1111122 
DISL,ioos:station:DISL:KATA:1,2017-09-06T12:30:00Z,30.2583,-88.2131,4.257,2.75,1111122 
DISL,ioos:station:DISL:KATA:1,2017-09-06T13:00:00Z,30.2583,-88.2131,4.295,2.96,1111122 
DISL,ioos:station:DISL:KATA:1,2017-09-06T13:30:00Z,30.2583,-88.2131,4.315,3.26,1111122 
DISL,ioos:station:DISL:KATA:1,2017-09-06T14:00:00Z,30.2583,-88.2131,4.337,3.34,1111122 
DISL,ioos:station:DISL:KATA:1,2017-09-06T14:30:00Z,30.2583,-88.2131,4.361,3.51,1111122 
DISL,ioos:station:DISL:KATA:1,2017-09-06T15:00:00Z,30.2583,-88.2131,4.356,3.44,1111122 
DISL,ioos:station:DISL:KATA:1,2017-09-06T15:30:00Z,30.2583,-88.2131,4.355,3.51,1111122 